Погода в Перегрузном

Россия / Волгоградская область     47°53′59″N   43°59′20″E
темп.,
°C
ветер,
м/с
пор.,
м/с
влажн.,
%
обл.,
%
осадки,
мм/ч
давл.,
гПа
погр.,
м
27 октября, ср
ср2700:000юз22525 0.0 103310
03:000юз22565 0.0 103310
06:00−1ююз22615 0.0 103210
09:00+4ю34485 0.0 1032266
12:00+8ю44355 0.0 1031778
15:00+9ю44315 0.0 1028874
18:00+5ююв45434 0.0 102862
21:00+3ю46470 0.0 102793
28 октября, чт
чт2800:00+2ююз35510 0.0 102662
03:00+1ююз33630 0.0 102621
06:00+1ююз33710 0.0 102532
09:00+5юз34590 0.0 1025229
12:00+10юз344633 0.0 1023798
15:00+11зюз3444100 0.0 10221054
18:00+7зсз3351100 0.0 102225
21:00+6з3351100 0.0 102245
29 октября, пт
пт2900:00+6з3551100 0.0 1021101
03:00+5з3646100 0.0 1021112
06:00+6з3653100 0.0 1022159
09:00+7зюз3672100 0.3 1023309
12:00+8сз4580100 0.0 1024450
15:00+9с4679100 0.0 1025544
18:00+9ссв4782100 0.0 1028446
21:00+8св598539 0.0 1029530
30 октября, сб
сб3000:00+7св5987100 0.0 1030432
03:00+6св6980100 0.0 1032440
06:00+5св5980100 0.0 1033363
09:00+6всв687596 0.0 1035370
12:00+10всв56545 0.0 1034720
15:00+11всв55502 0.0 1034835
18:00+7всв46630 0.0 1035100
21:00+6всв46670 0.0 1035111
31 октября, вс
вс3100:00+5всв45730 0.0 103585
03:00+4всв45800 0.0 103583
06:00+3всв47860 0.0 1035110
09:00+7в58690 0.0 1035278
12:00+12в68480 0.0 1033819
15:00+13в78440 0.0 10311124
18:00+9в49570 0.0 1031160
21:00+8в511590 0.0 1031191